Regional Weather Roundup
Issued by NWS

Home | Current Version | Previous Version | Graphics & Text | Print | Product List | Glossary On
Versions: 1 2 3 4 5 6 7 8 9 10 11 12 13 14 15 16 17 18 19 20 21 22 23 24 25 26 27 28 29 30 31 32 33 34 35 36 37 38 39 40 41 42 43 44 45 46 47 48 49 50
000
ASUS45 KTFX 191104
RWRMT
MONTANA HOURLY WEATHER ROUNDUP
NATIONAL WEATHER SERVICE GREAT FALLS MT
504 AM MDT FRI SEP 19 2014

NOTE: "FAIR" INDICATES FEW OR NO CLOUDS BELOW 12000 FEET WITH NO
SIGNIFICANT WEATHER AND/OR OBSTRUCTIONS TO VISIBILITY.

* THESE STATIONS ARE NOT UNDER NWS QUALITY CONTROL. THEY DO NOT
   REPORT WEATHER SUCH AS PRECIPITATION OR FOG.

MTZ001>007-043-191200-
WEST OF THE DIVIDE
CITY           SKY/WX    TMP DP  RH WIND       PRES   REMARKS
KALISPELL      CLOUDY    61  52  72 E5        29.88R
MISSOULA       CLOUDY    64  46  52 W8        29.94R
BUTTE          CLOUDY    48  43  83 CALM      30.02R
MULLAN PASS    CLOUDY    46  45  96 W8        30.04R
* ESSEX        N/A       54  52  93 SW1        N/A
* LINCOLN      N/A       60  41  50 SW5G18     N/A
* LOOKOUT PASS N/A       54  46  74 SE7G12     N/A
* POLSON       N/A       59  48  67 NW2        N/A
* RONAN APT    CLOUDY    64  48  56 SW6        N/A
* SEELEY LAKE  N/A       60  43  54 SW3G13     N/A
* THOMP F APT  MOCLDY    47  45  93 N4         N/A
$$

MTZ008-052>055-191200-
SOUTHWEST MONTANA
CITY           SKY/WX    TMP DP  RH WIND       PRES   REMARKS
BOZEMAN        CLOUDY    48  46  93 SE5       29.95R
DILLON         PTCLDY    48  41  77 S10       30.00R
W YELLOWSTONE  FOG       41  41 100 CALM      30.10R VSB M1/4
* THREE FORKS  MOCLDY    52  36  55 N/A        N/A
* BOULDER HILL N/A       52  39  61 S3         N/A
* MONIDA PASS  N/A       44  44 100 SE6        N/A
* RAYNOLDS PAS N/A       45  29  54 SE7        N/A
* WHITEHALL    N/A       51  47  86 E1         N/A
* WISE RIVER   N/A       46  42  86 SE2        N/A
$$

MTZ009>010-012-014-046-048-049-054-191200-
EAST SLOPES AND CENTRAL MONTANA
CITY           SKY/WX    TMP DP  RH WIND       PRES   REMARKS
CUT BANK       MOCLDY    59  45  60 SW14      29.78R
GREAT FALLS    PTCLDY    59  43  56 SW15      29.80S
HELENA         MOCLDY    64  43  47 SW13      29.89S
MALMSTROM AFB  MOCLDY    63  43  48 W12G20    29.81R
* CONRAD       MOCLDY    54  52  93 S6         N/A
* EAST GLACIER N/A       58  43  58 SW12       N/A
* MONARCH      N/A       59  37  44 W20G29     N/A
* PENDROY      N/A       56  44  64 NW9G14     N/A
* SAINT MARY   N/A       58  45  62 S11G24     N/A
* SWEET GRASS  N/A       56  46  69 W12G18     N/A
$$

MTZ011-013-016-021-035-040-045-047-050-051-191200-
NORTH CENTRAL MONTANA
CITY           SKY/WX    TMP DP  RH WIND       PRES   REMARKS
HAVRE          CLOUDY    61  46  58 SW15      29.71S
LEWISTOWN      MOCLDY    61  46  58 SW10      29.82F
* CHESTER      N/A       57  43  60 NW6        N/A
* DENTON       N/A       59  47  65 SW10       N/A
* JUDITH GAP   N/A       58  47  67 N/A        N/A
* LOMA         N/A       65  44  47 SW11G16    N/A
$$

MTZ017>020-022>027-061-062-191200-
NORTHEAST MONTANA
CITY           SKY/WX    TMP DP  RH WIND       PRES   REMARKS
GLASGOW        CLEAR     55  48  77 NW5       29.65R
GLENDIVE       CLOUDY    64  54  70 W9        29.66S
JORDAN         CLEAR     55  52  90 W8        29.71R
SIDNEY         CLOUDY    66  55  68 W16       29.61R
WOLF POINT     HAZE      57  52  83 SW12      29.63R
* BEAVER HILL  N/A       64  53  68 SW16       N/A
* CIRCLE       N/A       64  52  65 NW1G7      N/A
* LINDSAY DVD  N/A       63  52  68 W14G19     N/A
* NAVAJO       N/A       59  47  65 W12        N/A
$$

MTZ028>042-056>058-191200-
SOUTHCENTRAL AND SOUTHEAST MONTANA
CITY           SKY/WX    TMP DP  RH WIND       PRES   REMARKS
BAKER          CLOUDY    64  55  73 W15       29.72R
BILLINGS       PTCLDY    59  52  78 SW12      29.82S
LIVINGSTON     PTCLDY    61  46  58 W14       29.91R
MILES CITY     CLOUDY    63  54  73 W8        29.72R
* LAUREL APT   PTCLDY    55  48  77 N/A        N/A
* ROUNDUP APT  PTCLDY    57  46  67 N/A        N/A
* ALZADA       N/A       59  55  87 N/A        N/A
* LAME DEER    N/A       61  51  70 W8         N/A
* REED POINT   N/A       50  49  96 SW2        N/A
* ROSCOE HILL  N/A       59  35  41 S8         N/A
$$

REGIONAL REPORTS...DAKOTAS
CITY           SKY/WX    TMP DP  RH WIND       PRES   REMARKS
WILLISTON      CLOUDY    64  54  70 W13       29.57R
DICKINSON      CLOUDY    64  54  70 W10       29.64R
BEACH          N/A       63  54  73 W13G20    29.67R
CROSBY         PTCLDY    66  52  61 NW10      29.56R
TIOGA          FAIR      57  55  93 SW9       29.60R
WATFORD CITY   CLEAR     61  54  78 SW9       29.58R
BISMARCK       CLOUDY    68  61  78 SW13      29.62R
GRAND FORKS    LGT RAIN  64  57  78 S16       29.57F
FARGO          CLOUDY    64  55  73 S20G28    29.67F
RAPID CITY     CLOUDY    64  52  65 N8        29.77F
$$

REGIONAL REPORTS...WYOMING/IDAHO/WASHINGTON
CITY           SKY/WX    TMP DP  RH WIND       PRES   REMARKS
GILLETTE       CLOUDY    57  54  90 S12       29.85F
SHERIDAN       CLOUDY    63  52  68 CALM      29.84R
CODY           MOCLDY   N/A N/A N/A N/A        N/A
YELLOWSTONE LA PTCLDY    39  37  93 CALM      30.16R
SALMON         CLEAR     45  39  80 CALM      30.00R
MULLAN PASS    CLOUDY    46  45  96 W8        30.04S
SAND POINT     CLOUDY    61  50  67 SW7       29.90R
SPOKANE        PTCLDY    55  48  77 S10       29.93R

$$



USA.gov is the U.S. government's official web portal to all federal, state and local government web resources and services.